User: anonymous   Login
Location: Ladysmith
(45.4630°N, 91.1040°W)
Time: 18:16:59
(UTC-05:00)
Language:

SO-67 - Orbit

View from above orbital plane
View from above orbital plane
View from above satellite
View from above satellite

Ground track
Ground track

The orbit data is extracted from the following two-line orbital elements,

1 35870U 09049F   15186.40206153  .00006912  00000-0  16248-3 0  9999
2 35870 097.1340 202.3404 0003089 116.7148 001.9963 15.42298501322925
Epoch (UTC): 05 July 2015 09:38:58
Eccentricity: 0.0003089
inclination: 97.1340°
perigee height: 437 km
apogee height: 441 km
right ascension of ascending node: 202.3404°
argument of perigee: 116.7148°
revolutions per day: 15.42298501
mean anomaly at epoch: 1.9963°
orbit number at epoch: 32292

The dashed part of the orbit path shows where the satellite is in the earth's shadow,  

DLR